PP5EO-15 Weather Reports


Display with metric or nautical units.
time (UTC)temp
F
wind
direction
speed
MPH
gust
MPH
rain 1hr
in
rain 24hr
in
rain mn
in
humidity
%
barometer
mb
20260507200338 99 0.0 0.0 0.00 0.00 0.00 36 1006.2
20260507195345 99 0.0 0.0 0.00 0.00 0.00 36 1006.2
20260507194349 100 0.0 0.0 0.00 0.00 0.00 36 1006.3
20260507193354 100 0.0 0.0 0.00 0.00 0.00 35 1006.4
20260507192359 101 0.0 0.0 0.00 0.00 0.00 34 1006.4
20260507191404 101 0.0 0.0 0.00 0.00 0.00 34 1006.4
20260507190409 101 0.0 0.0 0.00 0.00 0.00 34 1006.5
20260507185414 102 0.0 0.0 0.00 0.00 0.00 32 1006.5
20260507184419 104 0.0 0.0 0.00 0.00 0.00 30 1006.5
20260507183424 106 0.0 0.0 0.00 0.00 0.00 28 1006.6
20260507182429 106 0.0 0.0 0.00 0.00 0.00 28 1006.8
20260507181434 106 0.0 0.0 0.00 0.00 0.00 29 1007.0
20260507180439 106 0.0 0.0 0.00 0.00 0.00 29 1007.1
20260507175444 105 0.0 0.0 0.00 0.00 0.00 29 1007.0
20260507174537 104 0.0 0.0 0.00 0.00 0.00 31 1007.1
20260507173454 104 0.0 0.0 0.00 0.00 0.00 30 1007.0
20260507172459 108 0.0 0.0 0.00 0.00 0.00 27 1007.2
20260507171504 112 0.0 0.0 0.00 0.00 0.00 23 1007.5
20260507170509 112 0.0 0.0 0.00 0.00 0.00 23 1007.7
20260507165514 111 0.0 0.0 0.00 0.00 0.00 24 1007.9
20260507164518 112 0.0 0.0 0.00 0.00 0.00 23 1008.1
20260507163524 111 0.0 0.0 0.00 0.00 0.00 24 1008.3
20260507162529 111 0.0 0.0 0.00 0.00 0.00 23 1008.4
20260507160539 111 0.0 0.0 0.00 0.00 0.00 24 1008.9
20260507155544 110 0.0 0.0 0.00 0.00 0.00 25 1009.3
20260507154550 108 0.0 0.0 0.00 0.00 0.00 27 1009.6
20260507153554 105 0.0 0.0 0.00 0.00 0.00 30 1009.9
20260507152559 102 0.0 0.0 0.00 0.00 0.00 31 1010.2
20260507151604 102 0.0 0.0 0.00 0.00 0.00 31 1010.7
20260507150609 102 0.0 0.0 0.00 0.00 0.00 32 1011.0
20260507145614 102 0.0 0.0 0.00 0.00 0.00 32 1011.2
20260507144619 102 0.0 0.0 0.00 0.00 0.00 32 1011.3
20260507143625 101 0.0 0.0 0.00 0.00 0.00 33 1011.5
20260507142629 99 0.0 0.0 0.00 0.00 0.00 35 1011.8
20260507141633 98 0.0 0.0 0.00 0.00 0.00 36 1012.0
20260507140639 97 0.0 0.0 0.00 0.00 0.00 37 1012.2
20260507135644 95 0.0 0.0 0.00 0.00 0.00 39 1012.3
20260507134648 95 0.0 0.0 0.00 0.00 0.00 38 1012.5
20260507133654 95 0.0 0.0 0.00 0.00 0.00 37 1012.7
20260507132659 96 0.0 0.0 0.00 0.00 0.00 37 1012.9
20260507131703 96 0.0 0.0 0.00 0.00 0.00 37 1012.9
20260507130709 96 0.0 0.0 0.00 0.00 0.00 38 1012.9
20260507125714 94 0.0 0.0 0.00 0.00 0.00 39 1013.0
20260507124719 93 0.0 0.0 0.00 0.00 0.00 40 1013.1
20260507123724 92 0.0 0.0 0.00 0.00 0.00 41 1013.1
20260507122729 91 0.0 0.0 0.00 0.00 0.00 42 1013.1
20260507121733 91 0.0 0.0 0.00 0.00 0.00 42 1013.2
20260507120739 91 0.0 0.0 0.00 0.00 0.00 43 1013.3
20260507115744 90 0.0 0.0 0.00 0.00 0.00 44 1013.3
20260507114749 90 0.0 0.0 0.00 0.00 0.00 45 1013.2
20260507113754 90 0.0 0.0 0.00 0.00 0.00 45 1013.1
20260507112759 89 0.0 0.0 0.00 0.00 0.00 46 1013.1
20260507111804 88 0.0 0.0 0.00 0.00 0.00 47 1013.2
20260507110809 88 0.0 0.0 0.00 0.00 0.00 48 1013.2
20260507105814 87 0.0 0.0 0.00 0.00 0.00 49 1013.2
20260507104819 87 0.0 0.0 0.00 0.00 0.00 49 1013.2
20260507103824 87 0.0 0.0 0.00 0.00 0.00 49 1013.1
20260507102829 87 0.0 0.0 0.00 0.00 0.00 49 1013.0
20260507101835 87 0.0 0.0 0.00 0.00 0.00 49 1013.1
20260507100839 87 0.0 0.0 0.00 0.00 0.00 49 1013.0
20260507095844 87 0.0 0.0 0.00 0.00 0.00 50 1012.9
20260507094850 87 0.0 0.0 0.00 0.00 0.00 50 1012.9
20260507093854 87 0.0 0.0 0.00 0.00 0.00 50 1013.0
20260507092859 87 0.0 0.0 0.00 0.00 0.00 50 1012.8
20260507091904 87 0.0 0.0 0.00 0.00 0.00 51 1012.7
20260507090909 87 0.0 0.0 0.00 0.00 0.00 50 1012.7
20260507085914 87 0.0 0.0 0.00 0.00 0.00 50 1012.6
20260507084919 87 0.0 0.0 0.00 0.00 0.00 50 1012.5
20260507083924 87 0.0 0.0 0.00 0.00 0.00 50 1012.5
20260507082928 88 0.0 0.0 0.00 0.00 0.00 50 1012.5
20260507082050 88 0.0 0.0 0.00 0.00 0.00 50 1012.4
20260507080939 88 0.0 0.0 0.00 0.00 0.00 51 1012.4
20260507075943 88 0.0 0.0 0.00 0.00 0.00 52 1012.5
20260507074949 88 0.0 0.0 0.00 0.00 0.00 52 1012.6
20260507073954 88 0.0 0.0 0.00 0.00 0.00 52 1012.6
20260507072959 88 0.0 0.0 0.00 0.00 0.00 52 1012.7
20260507072004 88 0.0 0.0 0.00 0.00 0.00 52 1012.7
20260507071009 88 0.0 0.0 0.00 0.00 0.00 52 1012.8
20260507070014 88 0.0 0.0 0.00 0.00 0.00 53 1012.9
20260507065019 88 0.0 0.0 0.00 0.00 0.00 53 1013.0
20260507064031 88 0.0 0.0 0.00 0.00 0.00 53 1013.0
20260507063031 88 0.0 0.0 0.00 0.00 0.00 53 1013.1
20260507062034 88 0.0 0.0 0.00 0.00 0.00 54 1013.2
20260507061040 87 0.0 0.0 0.00 0.00 0.00 54 1013.3
20260507055948 88 0.0 0.0 0.00 0.00 0.00 53 1013.4
20260507054950 88 0.0 0.0 0.00 0.00 0.00 53 1013.7
20260507053955 88 0.0 0.0 0.00 0.00 0.00 53 1013.9
20260507053000 88 0.0 0.0 0.00 0.00 0.00 53 1014.0
20260507052017 88 0.0 0.0 0.00 0.00 0.00 53 1014.2
20260507051010 88 0.0 0.0 0.00 0.00 0.00 53 1014.3
20260507050015 88 0.0 0.0 0.00 0.00 0.00 52 1014.4
20260507045020 88 0.0 0.0 0.00 0.00 0.00 52 1014.5
20260507044026 88 0.0 0.0 0.00 0.00 0.00 52 1014.6
20260507043030 88 0.0 0.0 0.00 0.00 0.00 53 1014.6
20260507041100 88 0.0 0.0 0.00 0.00 0.00 52 1014.7
20260507040107 88 0.0 0.0 0.00 0.00 0.00 52 1014.7
20260507035110 88 0.0 0.0 0.00 0.00 0.00 52 1014.8
20260507034114 88 0.0 0.0 0.00 0.00 0.00 52 1014.8
20260507033120 88 0.0 0.0 0.00 0.00 0.00 52 1014.9
20260507032126 88 0.0 0.0 0.00 0.00 0.00 52 1014.8
20260507030809 89 0.0 0.0 0.00 0.00 0.00 51 1015.1
20260507025814 90 0.0 0.0 0.00 0.00 0.00 50 1015.2
20260507024819 90 0.0 0.0 0.00 0.00 0.00 50 1015.3
20260507023823 91 0.0 0.0 0.00 0.00 0.00 49 1015.4
20260507022829 92 0.0 0.0 0.00 0.00 0.00 48 1015.4
20260507020137 88 0.0 0.0 0.00 0.00 0.00 53 1015.6
20260507015142 88 0.0 0.0 0.00 0.00 0.00 53 1015.6
20260507014147 88 0.0 0.0 0.00 0.00 0.00 53 1015.6
20260507013153 88 0.0 0.0 0.00 0.00 0.00 53 1015.6
20260507012200 88 0.0 0.0 0.00 0.00 0.00 53 1015.7
20260507011201 88 0.0 0.0 0.00 0.00 0.00 54 1015.7
20260507010207 88 0.0 0.0 0.00 0.00 0.00 53 1015.8
20260507005212 88 0.0 0.0 0.00 0.00 0.00 53 1015.8
20260507004217 88 0.0 0.0 0.00 0.00 0.00 53 1016.0
20260507003222 88 0.0 0.0 0.00 0.00 0.00 53 1016.1
20260507002227 88 0.0 0.0 0.00 0.00 0.00 52 1016.2
20260507001231 88 0.0 0.0 0.00 0.00 0.00 52 1016.2
20260507000238 89 0.0 0.0 0.00 0.00 0.00 52 1016.3
20260506235242 89 0.0 0.0 0.00 0.00 0.00 51 1016.3
20260506234247 89 0.0 0.0 0.00 0.00 0.00 51 1016.2
20260506233252 89 0.0 0.0 0.00 0.00 0.00 51 1016.1
20260506232257 89 0.0 0.0 0.00 0.00 0.00 51 1015.9
20260506231302 89 0.0 0.0 0.00 0.00 0.00 50 1015.8
20260506230307 89 0.0 0.0 0.00 0.00 0.00 50 1015.7
20260506225312 90 0.0 0.0 0.00 0.00 0.00 50 1015.6
20260506224317 90 0.0 0.0 0.00 0.00 0.00 50 1015.6
20260506223322 90 0.0 0.0 0.00 0.00 0.00 49 1015.5
20260506222327 90 0.0 0.0 0.00 0.00 0.00 49 1015.5
20260506221335 90 0.0 0.0 0.00 0.00 0.00 49 1015.4
20260506220338 90 0.0 0.0 0.00 0.00 0.00 49 1015.4
20260506215342 90 0.0 0.0 0.00 0.00 0.00 49 1015.4
20260506214347 90 0.0 0.0 0.00 0.00 0.00 49 1015.2
20260506213352 90 0.0 0.0 0.00 0.00 0.00 49 1015.2
20260506212357 90 0.0 0.0 0.00 0.00 0.00 49 1015.1
20260506211402 90 0.0 0.0 0.00 0.00 0.00 48 1015.1
20260506210407 90 0.0 0.0 0.00 0.00 0.00 48 1015.0
20260506205412 91 0.0 0.0 0.00 0.00 0.00 47 1014.9
20260506204417 92 0.0 0.0 0.00 0.00 0.00 46 1014.9
20260506203422 93 0.0 0.0 0.00 0.00 0.00 45 1014.8
20260506202427 94 0.0 0.0 0.00 0.00 0.00 43 1014.8
20260506201432 95 0.0 0.0 0.00 0.00 0.00 42 1014.7